Погода в Хадаме

Поиск расширенной информации на нашем сайте:

Полезная информация:

Новости сайта



02.01.2020
Опубликован Долгосрочный прогноз погоды по городам России и ближнего зарубежья на январь 2020 года.
Карты: Прогноз на январь и февраль 2020 года, Сравнение прогнозируемой аномалии приземной температуры воздуха на январь 2020 года по разным моделям.




Погода в Хадаме - сегодня

Время (UTC), дата Ветер
(°,м/с) 
Видим.   Явления Облачность Т
(°С)
Тd
(°С)
f(%) Тe
(°С)
Pmin
(гПа)
dP
(гПа)
Po
(мм)
O2
(г/м3)
Тmin Tmax R s Состояние
почвы
00 21.11.20 160 (Ю) н/о    ясно 
-17 -17.6 95 -17  1041.2  -0.5  711  307  -17.4      равномерный
сухой снег
100% 
12 21.11.20 180 (Ю) н/о    10/5 600 м кучево-дожд., верхняя 
[Cb cap|Cs]
-5.6 -10.3 69 -7  1031.5  -2.1  708  292    -2.8       
00 22.11.20 180 (Ю) н/о    10/10 600 м кучево-дожд. 
[Cb cap]
-5 -6.3 91 -6  1028.9  -1.2  706  290  -6.1    0.0  равномерный
сухой снег
100% 
12 22.11.20 180 (Ю) н/о    10/10 600 м кучево-дожд. 
[Cb cap]
-11.4 -6.5 100 -11  1028.3  -0.7  706  298    -0.5       
00 23.11.20 180 (Ю) н/о  {ливн. осадки}  10/10 600 м кучево-дожд. 
[Cb cap]
-2.9 -3.9 93 -2  1028.5  706  288  -3.3    0.2  равномерный
сухой снег
100% 
12 23.11.20 180 (Ю) н/о  слаб. ливневой снег  10/10 600 м кучево-дожд. 
[Cb cap]
-1.1 -4.6 77 -1  1030.7  2.5  708  287    -0.2  0.2     
00 24.11.20 190 (Ю) н/о  {ливн. осадки}  10/10 600 м кучево-дожд. 
[Cb cap]
-5.5 -7.7 84 -5  1035.9  711  293  -5.7    0.3  равномерный
сухой снег
100% 
12 24.11.20 120 (ЮВ) н/о  {ливн. осадки}  10/10 600 м кучево-дожд. 
[Cb cap]
-5.1 -10.1 68 -5  1037.2  0.8  711  293    -3  0.0     
00 25.11.20 180 (Ю) н/о  {ливн. осадки}  10/10 600 м кучево-дожд. 
[Cb cap]
-8 -11.2 78 -10  1038.2  712  296  -8.5    0.0  равномерный
сухой снег
100% 
12 25.11.20 220 (ЮЗ) н/о    10/10 600 м кучево-дожд. 
[Cb cap]
-8 -12.6 69 -10  1040.8  713  297    -6.1  0.0     
00 26.11.20 180 (Ю) н/о    10/10 600 м кучево-дожд. 
[Cb cap]
-10.3 -13.9 75 -12  1043.6  0.8  715  301  -10.6      равномерный
сухой снег
100% 
12 26.11.20 120 (ЮВ) н/о    3/0 верхняя 
[Ci fib]
-63.3 -15.9 100 -66  1048.8  717  378    -7.6       
00 27.11.20 160 (Ю) н/о    ясно 
-25.2 -27.1 84 -26  1054.5  0.8  718  321  -25.3      равномерный
сухой снег
100% 
12 27.11.20 тихо ()   н/о    ясно 
-19.4 -21.3 85 -19  1048.9  -0.9  716  312  -25.6  -13.4       
00 28.11.20 110 (В) н/о    ясно 
-26.3 -28.1 85 -27  1051.7  0.3  716  321  -27      равномерный
сухой снег
100% 
12 28.11.20 тихо ()   н/о    ясно 
-19.6 -20.8 90 -20  1047.2  0.3  715  312    -14.1       
00 29.11.20 170 (Ю) н/о    ясно 
-25.9 -27.8 84 -26  1051.9  1.1  716  321  -26.3      равномерный
сухой снег
100% 
12 29.11.20 190 (Ю) н/о    ясно 
-19.8 -21 90 -20  1047.3  715  312    -13       
00 30.11.20 170 (Ю) н/о    10/5 1000 м средняя, верхняя 
[Sc|Ac trans|Ci sp]
-22.6 -24.4 85 -26  1051.7  1.5  717  317  -24.1      равномерный
сухой снег
100% 
12 30.11.20 160 (Ю) н/о    6/0 средняя, верхняя 
[Ac lent|Ci fib]
-19 -20.9 85 -19  1050.3  0.6  717  312    -14.1       
00 01.12.20 180 (Ю) н/о    10/0 средняя, верхняя 
[Ac trans|Cs]
-21.1 -23 85 -21  1048.9  -1.4  716  314  -23      равномерный
сухой снег
100% 
12 01.12.20 160 (Ю) н/о  снег  10/0 средняя 
[As op]
-11.8 -12.4 95 -12  1044.4  0.8  715  302    -11.5  0.2     
00 02.12.20 тихо ()   н/о  {снег}  10/0 средняя, верхняя 
[Ac trans|Cs]
-15 -15.5 96 -15  1048.3  1.4  717  307  -25.3    0.6  равномерный
сухой снег
100% 
12 02.12.20 190 (Ю) н/о    ясно 
-17.3 -18.5 90 -17  1049.3  0.8  717  310    -8.7       
00 03.12.20 150 (ЮВ) н/о    ясно 
-27.3 -29.2 84 -28  1053.7  -0.4  717  323  -27.6      равномерный
сухой снег
100% 
Время (UTC), дата Ветер
(°,м/с) 
Видим.   Явления Облачность Т
(°С)
Тd
(°С)
f(%) Тe
(°С)
Pmin
(гПа)
dP
(гПа)
Po
(мм)
O2
(г/м3)
Тmin Tmax R s Состояние
почвы

Для получения пояснительной информации подведите курсор к названию столбца.

ПОГОДА в Хадаме - архив

Всё, что Вы хотите узнать о погоде в Хадаме - удобно и подробно!

Выберите нужную дату (начиная с 1 января 2019* года) и нажмите кнопку "Найти".
Будут отображены архивные сводки погоды по пункту Хадама, начиная с указанной даты.


Отображать данные в формате CSV (для использования в таблицах Excel)


Внимание! Наш архив погоды предназначен исключительно для личного некоммерческого использования в познавательных целях. Если Вам необходимы официальные справки о состоянии погоды (для производственных, юридических, коммерческих и т.п. целей), обращайтесь в органы Росгидромета.

*Примечание: данная дата относится к архиву по метеостанциям СССР (Россия, СНГ, Балтия).
Архив по метеостанциям Зарубежной Европы и Азии (кроме Китая) хранится 10 дней, по другим регионам земного шара (Китай, Африка, Америка, Австралия, Океания) - 1 день.

Хадама - район местоположения метеостанции


Название, широта, долгота, высота метеостанции:
Хадама 53.9°ш. 98.8°д. 705 м над ур. моря [Российская Федерация]

Дополнительная информация

В oтличие oт бoльшинства пoгoдных сайтoв мы публикуем пoдрoбную метеoинфoрмацию в детальнoм прoфессиoнальнoм фoрмате.

Характеристики температуры и влажнoсти вoздуха измеряются на высoте 2 м в тени вдали oт зданий и деревьев.
Скoрoсть ветра измеряется на высoте 10 м (на урoвне рoста челoвека скoрoсть ветра ниже в 1.5-2 раза). Если метеoстанция нахoдится в гoрoде или в лесу, тo скoрoсть ветра занижена на 2-4 м/с пo сравнению с oткрытым местoм. Скoрoсть ветра над акватoриями крупных рек и oзёр, а также на вершинах хoлмoв на 2-5 м/с выше, чем в oбычных услoвиях.
Атмoсфернoе давление в разных тoчках местнoсти мoжет значительнo oтличаться oт давления на метеoстанции, в зависимoсти oт услoвий рельефа (при пoдъёме на 10 м давление пoнижается примернo на 1 мм рт.ст.).